Time,TemperatureF,DewpointF,PressureIn,WindDirection,WindDirectionDegrees,WindSpeedMPH,WindSpeedGustMPH,Humidity,HourlyPrecipIn,Conditions,Clouds,dailyrainin,SoftwareType,DateUTC
2013-10-07 00:04:00,37.6,34.4,30.06,West,264,1.0,1.0,88,0.00,CLR,CLR,0.00,WeatherDisplay:10.34,2013-10-07 06:04:00,
2013-10-07 00:09:00,37.6,34.4,30.06,West,264,0.0,2.0,88,0.00,CLR,CLR,0.00,WeatherDisplay:10.34,2013-10-07 06:09:00,
2013-10-07 00:14:00,37.7,34.8,30.06,West,264,0.0,1.0,89,0.00,CLR,CLR,0.00,WeatherDisplay:10.34,2013-10-07 06:14:00,
2013-10-07 00:19:00,37.7,34.8,30.06,West,264,1.0,3.0,89,0.00,CLR,CLR,0.00,WeatherDisplay:10.34,2013-10-07 06:19:00,
2013-10-07 00:24:00,37.6,34.7,30.06,West,264,2.0,2.0,89,0.00,CLR,CLR,0.00,WeatherDisplay:10.34,2013-10-07 06:24:00,
2013-10-07 00:29:00,37.5,34.6,30.06,West,267,5.0,5.0,89,0.00,CLR,CLR,0.00,WeatherDisplay:10.34,2013-10-07 06:29:00,
2013-10-07 00:34:00,37.7,34.8,30.06,West,267,4.0,4.0,89,0.00,CLR,CLR,0.00,WeatherDisplay:10.34,2013-10-07 06:34:00,
2013-10-07 00:39:00,37.8,34.8,30.06,West,276,3.0,3.0,89,0.00,CLR,CLR,0.00,WeatherDisplay:10.34,2013-10-07 06:39:00,
2013-10-07 00:44:00,37.7,34.8,30.05,WSW,238,8.0,9.0,89,0.00,CLR,CLR,0.00,WeatherDisplay:10.34,2013-10-07 06:44:00,
2013-10-07 00:49:00,37.8,34.8,30.05,North,9,0.0,1.0,89,0.00,CLR,CLR,0.00,WeatherDisplay:10.34,2013-10-07 06:49:00,
2013-10-07 00:54:00,37.9,34.9,30.05,NW,317,1.0,2.0,89,0.00,CLR,CLR,0.00,WeatherDisplay:10.34,2013-10-07 06:54:00,
2013-10-07 00:59:00,38.0,35.0,30.05,NNE,15,5.0,5.0,89,0.00,CLR,CLR,0.00,WeatherDisplay:10.34,2013-10-07 06:59:00,
2013-10-07 01:04:00,38.2,35.2,30.05,NNW,337,4.0,7.0,89,0.00,CLR,CLR,0.00,WeatherDisplay:10.34,2013-10-07 07:04:00,
2013-10-07 01:09:00,38.2,35.2,30.05,WNW,290,2.0,5.0,89,0.00,CLR,CLR,0.00,WeatherDisplay:10.34,2013-10-07 07:09:00,
2013-10-07 01:14:00,38.2,35.2,30.05,NNE,20,2.0,3.0,89,0.00,CLR,CLR,0.00,WeatherDisplay:10.34,2013-10-07 07:14:00,
2013-10-07 01:19:00,38.2,35.2,30.05,WNW,286,2.0,3.0,89,0.00,CLR,CLR,0.00,WeatherDisplay:10.34,2013-10-07 07:19:00,
2013-10-07 01:24:00,38.1,34.9,30.05,WNW,286,0.0,0.0,88,0.00,CLR,CLR,0.00,WeatherDisplay:10.34,2013-10-07 07:24:00,
2013-10-07 01:29:00,37.9,34.7,30.05,WNW,291,6.0,6.0,88,0.00,CLR,CLR,0.00,WeatherDisplay:10.34,2013-10-07 07:29:00,
2013-10-07 01:34:00,37.7,34.5,30.04,WNW,291,3.0,3.0,88,0.00,CLR,CLR,0.00,WeatherDisplay:10.34,2013-10-07 07:34:00,
2013-10-07 01:39:00,37.6,34.4,30.04,WNW,291,2.0,2.0,88,0.00,CLR,CLR,0.00,WeatherDisplay:10.34,2013-10-07 07:39:00,
2013-10-07 01:44:00,37.5,34.3,30.04,WNW,291,0.0,1.0,88,0.00,CLR,CLR,0.00,WeatherDisplay:10.34,2013-10-07 07:44:00,
2013-10-07 01:49:00,37.4,34.2,30.04,WNW,291,0.0,0.0,88,0.00,CLR,CLR,0.00,WeatherDisplay:10.34,2013-10-07 07:49:00,
2013-10-07 01:54:00,37.4,34.2,30.05,WNW,291,2.0,3.0,88,0.00,CLR,CLR,0.00,WeatherDisplay:10.34,2013-10-07 07:54:00,
2013-10-07 01:59:00,37.3,34.1,30.05,WNW,291,1.0,3.0,88,0.00,CLR,CLR,0.00,WeatherDisplay:10.34,2013-10-07 07:59:00,
2013-10-07 02:04:00,37.2,34.3,30.05,WNW,291,1.0,1.0,89,0.00,CLR,CLR,0.00,WeatherDisplay:10.34,2013-10-07 08:04:00,
2013-10-07 02:09:00,37.2,34.3,30.05,WNW,291,2.0,2.0,89,0.00,CLR,CLR,0.00,WeatherDisplay:10.34,2013-10-07 08:09:00,
2013-10-07 02:14:00,37.1,34.2,30.04,WNW,291,3.0,3.0,89,0.00,CLR,CLR,0.00,WeatherDisplay:10.34,2013-10-07 08:14:00,
2013-10-07 02:19:00,37.1,34.2,30.03,WNW,291,1.0,1.0,89,0.00,CLR,CLR,0.00,WeatherDisplay:10.34,2013-10-07 08:19:00,
2013-10-07 02:24:00,37.1,34.2,30.04,WNW,291,2.0,2.0,89,0.00,CLR,CLR,0.00,WeatherDisplay:10.34,2013-10-07 08:24:00,
2013-10-07 02:29:00,37.1,34.2,30.04,WNW,291,1.0,2.0,89,0.00,CLR,CLR,0.00,WeatherDisplay:10.34,2013-10-07 08:29:00,
2013-10-07 02:34:00,37.1,34.2,30.04,WNW,291,2.0,2.0,89,0.00,CLR,CLR,0.00,WeatherDisplay:10.34,2013-10-07 08:34:00,
2013-10-07 02:39:00,37.0,34.1,30.04,WNW,291,4.0,4.0,89,0.00,CLR,CLR,0.00,WeatherDisplay:10.34,2013-10-07 08:39:00,
2013-10-07 02:44:00,36.8,33.9,30.03,WNW,291,1.0,1.0,89,0.00,CLR,CLR,0.00,WeatherDisplay:10.34,2013-10-07 08:44:00,
2013-10-07 02:49:00,36.5,33.3,30.02,WNW,291,0.0,0.0,88,0.00,CLR,CLR,0.00,WeatherDisplay:10.34,2013-10-07 08:49:00,
2013-10-07 02:54:00,36.2,33.0,30.02,WNW,291,0.0,0.0,88,0.00,CLR,CLR,0.00,WeatherDisplay:10.34,2013-10-07 08:54:00,
2013-10-07 02:59:00,36.0,32.8,30.02,WNW,291,0.0,0.0,88,0.00,CLR,CLR,0.00,WeatherDisplay:10.34,2013-10-07 08:59:00,
2013-10-07 03:04:00,35.6,32.4,30.02,WNW,291,0.0,0.0,88,0.00,CLR,CLR,0.00,WeatherDisplay:10.34,2013-10-07 09:04:00,
2013-10-07 03:09:00,35.4,32.2,30.02,WNW,291,3.0,3.0,88,0.00,CLR,CLR,0.00,WeatherDisplay:10.34,2013-10-07 09:09:00,
2013-10-07 03:14:00,35.2,32.0,30.02,WNW,291,0.0,0.0,88,0.00,CLR,CLR,0.00,WeatherDisplay:10.34,2013-10-07 09:14:00,
2013-10-07 03:19:00,35.1,32.2,30.02,WNW,291,0.0,1.0,89,0.00,CLR,CLR,0.00,WeatherDisplay:10.34,2013-10-07 09:19:00,
2013-10-07 03:24:00,35.0,32.1,30.01,WNW,291,0.0,0.0,89,0.00,CLR,CLR,0.00,WeatherDisplay:10.34,2013-10-07 09:24:00,
2013-10-07 03:29:00,34.9,32.0,30.01,WNW,291,2.0,2.0,89,0.00,CLR,CLR,0.00,WeatherDisplay:10.34,2013-10-07 09:29:00,
2013-10-07 03:34:00,34.9,32.0,30.01,WNW,291,0.0,0.0,89,0.00,CLR,CLR,0.00,WeatherDisplay:10.34,2013-10-07 09:34:00,
2013-10-07 03:39:00,34.7,31.8,30.01,WNW,291,0.0,0.0,89,0.00,CLR,CLR,0.00,WeatherDisplay:10.34,2013-10-07 09:39:00,
2013-10-07 03:44:00,34.4,31.5,30.01,WNW,291,0.0,0.0,89,0.00,CLR,CLR,0.00,WeatherDisplay:10.34,2013-10-07 09:44:00,
2013-10-07 03:49:00,34.4,31.5,30.01,WNW,291,0.0,1.0,89,0.00,CLR,CLR,0.00,WeatherDisplay:10.34,2013-10-07 09:49:00,
2013-10-07 03:54:00,34.4,31.5,30.01,WNW,291,1.0,1.0,89,0.00,CLR,CLR,0.00,WeatherDisplay:10.34,2013-10-07 09:54:00,
2013-10-07 03:59:00,34.4,31.8,30.01,WNW,291,0.0,1.0,90,0.00,CLR,CLR,0.00,WeatherDisplay:10.34,2013-10-07 09:59:00,
2013-10-07 04:04:00,34.4,31.8,30.01,WNW,291,1.0,2.0,90,0.00,CLR,CLR,0.00,WeatherDisplay:10.34,2013-10-07 10:04:00,
2013-10-07 04:09:00,34.2,31.6,30.01,WNW,291,0.0,1.0,90,0.00,CLR,CLR,0.00,WeatherDisplay:10.34,2013-10-07 10:09:00,
2013-10-07 04:14:00,34.0,31.4,30.01,WNW,291,1.0,1.0,90,0.00,CLR,CLR,0.00,WeatherDisplay:10.34,2013-10-07 10:14:00,
2013-10-07 04:19:00,33.9,31.3,30.01,WNW,291,1.0,1.0,90,0.00,CLR,CLR,0.00,WeatherDisplay:10.34,2013-10-07 10:19:00,
2013-10-07 04:24:00,33.8,31.2,30.00,WNW,291,0.0,0.0,90,0.00,CLR,CLR,0.00,WeatherDisplay:10.34,2013-10-07 10:24:00,
2013-10-07 04:29:00,33.7,31.1,30.00,WNW,291,0.0,0.0,90,0.00,CLR,CLR,0.00,WeatherDisplay:10.34,2013-10-07 10:29:00,
2013-10-07 04:34:00,33.6,31.0,30.00,WNW,291,0.0,0.0,90,0.00,CLR,CLR,0.00,WeatherDisplay:10.34,2013-10-07 10:34:00,
2013-10-07 04:39:00,33.6,31.0,30.00,WNW,291,0.0,0.0,90,0.00,CLR,CLR,0.00,WeatherDisplay:10.34,2013-10-07 10:39:00,
2013-10-07 04:44:00,33.4,30.8,29.99,WNW,291,1.0,1.0,90,0.00,CLR,CLR,0.00,WeatherDisplay:10.34,2013-10-07 10:44:00,
2013-10-07 04:49:00,33.3,30.7,29.99,WNW,291,0.0,0.0,90,0.00,CLR,CLR,0.00,WeatherDisplay:10.34,2013-10-07 10:49:00,
2013-10-07 04:54:00,33.2,30.6,29.99,WNW,291,1.0,1.0,90,0.00,CLR,CLR,0.00,WeatherDisplay:10.34,2013-10-07 10:54:00,
2013-10-07 04:59:00,33.2,30.6,29.99,WNW,291,0.0,0.0,90,0.00,CLR,CLR,0.00,WeatherDisplay:10.34,2013-10-07 10:59:00,
2013-10-07 05:04:00,33.2,30.6,29.99,WNW,291,0.0,2.0,90,0.00,CLR,CLR,0.00,WeatherDisplay:10.34,2013-10-07 11:04:00,
2013-10-07 05:09:00,33.3,31.0,29.99,WNW,291,0.0,1.0,91,0.00,CLR,CLR,0.00,WeatherDisplay:10.34,2013-10-07 11:09:00,
2013-10-07 05:14:00,33.3,31.0,29.99,WNW,291,0.0,0.0,91,0.00,CLR,CLR,0.00,WeatherDisplay:10.34,2013-10-07 11:14:00,
2013-10-07 05:19:00,33.3,31.0,29.99,WNW,291,0.0,0.0,91,0.00,CLR,CLR,0.00,WeatherDisplay:10.34,2013-10-07 11:19:00,
2013-10-07 05:24:00,33.3,31.0,29.99,WNW,291,1.0,1.0,91,0.00,CLR,CLR,0.00,WeatherDisplay:10.34,2013-10-07 11:24:00,
2013-10-07 05:29:00,33.2,30.9,29.99,WNW,291,0.0,0.0,91,0.00,CLR,CLR,0.00,WeatherDisplay:10.34,2013-10-07 11:29:00,
2013-10-07 05:34:00,33.2,30.9,29.99,WNW,291,0.0,0.0,91,0.00,CLR,CLR,0.00,WeatherDisplay:10.34,2013-10-07 11:34:00,
2013-10-07 05:39:00,33.2,30.9,29.99,WNW,291,0.0,0.0,91,0.00,CLR,CLR,0.00,WeatherDisplay:10.34,2013-10-07 11:39:00,
2013-10-07 05:44:00,33.2,30.9,29.99,WNW,291,0.0,0.0,91,0.00,CLR,CLR,0.00,WeatherDisplay:10.34,2013-10-07 11:44:00,
2013-10-07 05:49:00,33.1,30.8,29.99,WNW,291,0.0,0.0,91,0.00,CLR,CLR,0.00,WeatherDisplay:10.34,2013-10-07 11:49:00,
2013-10-07 05:54:00,33.1,30.8,29.98,WNW,291,0.0,0.0,91,0.00,CLR,CLR,0.00,WeatherDisplay:10.34,2013-10-07 11:54:00,
2013-10-07 05:59:00,33.0,30.7,29.98,WNW,291,0.0,1.0,91,0.00,CLR,CLR,0.00,WeatherDisplay:10.34,2013-10-07 11:59:00,
2013-10-07 06:04:00,33.0,30.7,29.98,WNW,291,2.0,2.0,91,0.00,CLR,CLR,0.00,WeatherDisplay:10.34,2013-10-07 12:04:00,
2013-10-07 06:09:00,33.0,30.7,29.98,WNW,291,2.0,2.0,91,0.00,CLR,CLR,0.00,WeatherDisplay:10.34,2013-10-07 12:09:00,
2013-10-07 06:14:00,33.0,30.7,29.99,WNW,291,1.0,1.0,91,0.00,CLR,CLR,0.00,WeatherDisplay:10.34,2013-10-07 12:14:00,
2013-10-07 06:19:00,33.1,30.8,29.99,WNW,291,0.0,1.0,91,0.00,CLR,CLR,0.00,WeatherDisplay:10.34,2013-10-07 12:19:00,
2013-10-07 06:24:00,33.1,30.8,29.98,WNW,291,1.0,2.0,91,0.00,CLR,CLR,0.00,WeatherDisplay:10.34,2013-10-07 12:24:00,
2013-10-07 06:29:00,33.1,30.8,29.98,WNW,291,0.0,1.0,91,0.00,CLR,CLR,0.00,WeatherDisplay:10.34,2013-10-07 12:29:00,
2013-10-07 06:34:00,33.1,30.8,29.98,WNW,291,0.0,1.0,91,0.00,CLR,CLR,0.00,WeatherDisplay:10.34,2013-10-07 12:34:00,
2013-10-07 06:39:00,33.1,31.0,29.98,WNW,291,0.0,1.0,92,0.00,CLR,CLR,0.00,WeatherDisplay:10.34,2013-10-07 12:39:00,
2013-10-07 06:44:00,33.1,31.0,29.98,WNW,291,1.0,2.0,92,0.00,CLR,CLR,0.00,WeatherDisplay:10.34,2013-10-07 12:44:00,
2013-10-07 06:49:00,33.1,31.0,29.98,WNW,291,1.0,2.0,92,0.00,CLR,CLR,0.00,WeatherDisplay:10.34,2013-10-07 12:49:00,
2013-10-07 06:54:00,33.1,31.0,29.98,NNW,340,7.0,8.0,92,0.00,CLR,CLR,0.00,WeatherDisplay:10.34,2013-10-07 12:54:00,
2013-10-07 06:59:00,33.0,30.9,29.98,NNW,337,5.0,5.0,92,0.00,CLR,CLR,0.00,WeatherDisplay:10.34,2013-10-07 12:59:00,
2013-10-07 07:04:00,33.1,31.0,29.98,NNW,338,5.0,5.0,92,0.00,OVC,OVC,0.00,WeatherDisplay:10.34,2013-10-07 13:04:00,
2013-10-07 07:09:00,33.4,31.3,29.98,NNW,338,3.0,3.0,92,0.00,OVC,OVC,0.00,WeatherDisplay:10.34,2013-10-07 13:09:00,
2013-10-07 07:14:00,33.6,31.5,29.97,NNW,338,3.0,3.0,92,0.00,OVC,OVC,0.00,WeatherDisplay:10.34,2013-10-07 13:14:00,
2013-10-07 07:19:00,33.8,32.0,29.97,NNW,338,3.0,3.0,93,0.00,OVC,OVC,0.00,WeatherDisplay:10.34,2013-10-07 13:19:00,
2013-10-07 07:24:00,33.8,31.7,29.97,NNW,338,3.0,3.0,92,0.00,OVC,OVC,0.00,WeatherDisplay:10.34,2013-10-07 13:24:00,
2013-10-07 07:29:00,33.6,31.5,29.97,NNW,338,0.0,0.0,92,0.00,OVC,OVC,0.00,WeatherDisplay:10.34,2013-10-07 13:29:00,
2013-10-07 07:34:00,33.5,31.4,29.96,NNW,338,1.0,1.0,92,0.00,OVC,OVC,0.00,WeatherDisplay:10.34,2013-10-07 13:34:00,
2013-10-07 07:39:00,33.5,31.4,29.96,NNW,338,0.0,0.0,92,0.00,OVC,OVC,0.00,WeatherDisplay:10.34,2013-10-07 13:39:00,
2013-10-07 07:44:00,33.5,31.4,29.96,NNW,338,0.0,0.0,92,0.00,OVC,OVC,0.00,WeatherDisplay:10.34,2013-10-07 13:44:00,
2013-10-07 07:49:00,33.7,31.9,29.96,NNW,338,0.0,0.0,93,0.00,OVC,OVC,0.00,WeatherDisplay:10.34,2013-10-07 13:49:00,
2013-10-07 07:54:00,34.0,32.2,29.96,NNW,338,0.0,0.0,93,0.00,OVC,OVC,0.00,WeatherDisplay:10.34,2013-10-07 13:54:00,
2013-10-07 07:59:00,34.2,32.4,29.96,NNW,338,0.0,1.0,93,0.00,OVC,OVC,0.00,WeatherDisplay:10.34,2013-10-07 13:59:00,
2013-10-07 08:04:00,34.4,32.6,29.96,NNW,338,2.0,2.0,93,0.00,CLR,CLR,0.00,WeatherDisplay:10.34,2013-10-07 14:04:00,
2013-10-07 08:09:00,34.4,32.6,29.96,NNW,338,3.0,3.0,93,0.00,CLR,CLR,0.00,WeatherDisplay:10.34,2013-10-07 14:09:00,
2013-10-07 08:14:00,34.4,32.6,29.96,NNW,338,2.0,3.0,93,0.00,CLR,CLR,0.00,WeatherDisplay:10.34,2013-10-07 14:14:00,
2013-10-07 08:19:00,34.7,32.9,29.95,NNW,338,0.0,1.0,93,0.00,CLR,CLR,0.00,WeatherDisplay:10.34,2013-10-07 14:19:00,
2013-10-07 08:24:00,35.1,33.3,29.96,NNW,338,0.0,0.0,93,0.00,CLR,CLR,0.00,WeatherDisplay:10.34,2013-10-07 14:24:00,
2013-10-07 08:29:00,35.7,34.1,29.96,NNW,338,1.0,1.0,94,0.00,CLR,CLR,0.00,WeatherDisplay:10.34,2013-10-07 14:29:00,
2013-10-07 08:34:00,36.3,34.7,29.95,NNW,338,1.0,1.0,94,0.00,CLR,CLR,0.00,WeatherDisplay:10.34,2013-10-07 14:34:00,
2013-10-07 08:39:00,37.0,35.4,29.95,NNW,338,2.0,2.0,94,0.00,CLR,CLR,0.00,WeatherDisplay:10.34,2013-10-07 14:39:00,
2013-10-07 08:44:00,37.9,36.3,29.96,NNW,338,0.0,2.0,94,0.00,CLR,CLR,0.00,WeatherDisplay:10.34,2013-10-07 14:44:00,
2013-10-07 08:49:00,38.6,37.0,29.96,NNW,333,4.0,5.0,94,0.00,CLR,CLR,0.00,WeatherDisplay:10.34,2013-10-07 14:49:00,
2013-10-07 08:54:00,38.9,37.3,29.95,NNW,348,9.0,9.0,94,0.00,CLR,CLR,0.00,WeatherDisplay:10.34,2013-10-07 14:54:00,
2013-10-07 08:59:00,39.0,37.4,29.95,North,355,6.0,7.0,94,0.00,CLR,CLR,0.00,WeatherDisplay:10.34,2013-10-07 14:59:00,
2013-10-07 09:04:00,39.2,37.3,29.96,North,350,4.0,4.0,93,0.00,CLR,CLR,0.00,WeatherDisplay:10.34,2013-10-07 15:04:00,
2013-10-07 09:09:00,39.4,37.5,29.95,North,349,2.0,2.0,93,0.00,CLR,CLR,0.00,WeatherDisplay:10.34,2013-10-07 15:09:00,
2013-10-07 09:14:00,39.7,37.8,29.95,North,355,3.0,3.0,93,0.00,CLR,CLR,0.00,WeatherDisplay:10.34,2013-10-07 15:14:00,
2013-10-07 09:19:00,39.8,37.9,29.95,North,360,3.0,5.0,93,0.00,CLR,CLR,0.00,WeatherDisplay:10.34,2013-10-07 15:19:00,
2013-10-07 09:24:00,40.1,38.2,29.94,NNE,25,3.0,7.0,93,0.00,CLR,CLR,0.00,WeatherDisplay:10.34,2013-10-07 15:24:00,
2013-10-07 09:29:00,40.4,38.3,29.94,NE,49,0.0,0.0,92,0.00,CLR,CLR,0.00,WeatherDisplay:10.34,2013-10-07 15:29:00,
2013-10-07 09:34:00,40.9,38.5,29.95,NNW,345,2.0,3.0,91,0.00,CLR,CLR,0.00,WeatherDisplay:10.34,2013-10-07 15:34:00,
2013-10-07 09:41:00,41.8,39.4,29.94,North,360,2.0,3.0,91,0.00,CLR,CLR,0.00,WeatherDisplay:10.34,2013-10-07 15:41:00,
2013-10-07 09:47:00,42.4,39.1,29.94,NNE,20,2.0,3.0,88,0.00,CLR,CLR,0.00,WeatherDisplay:10.34,2013-10-07 15:47:00,
2013-10-07 09:52:00,43.2,39.6,29.94,ENE,66,4.0,5.0,87,0.00,CLR,CLR,0.00,WeatherDisplay:10.34,2013-10-07 15:52:00,
2013-10-07 09:57:00,43.6,39.1,29.94,NE,48,1.0,5.0,84,0.00,CLR,CLR,0.00,WeatherDisplay:10.34,2013-10-07 15:57:00,
2013-10-07 10:02:00,44.1,39.0,29.93,NE,55,3.0,3.0,82,0.00,CLR,CLR,0.00,WeatherDisplay:10.34,2013-10-07 16:02:00,
2013-10-07 10:07:00,44.6,39.1,29.93,North,5,5.0,7.0,81,0.00,CLR,CLR,0.00,WeatherDisplay:10.34,2013-10-07 16:07:00,
2013-10-07 10:12:00,44.9,39.1,29.93,NE,34,2.0,3.0,80,0.00,FEW,FEW,0.00,WeatherDisplay:10.34,2013-10-07 16:12:00,
2013-10-07 10:17:00,45.0,38.9,29.93,NE,34,5.0,7.0,79,0.00,SCT,SCT,0.00,WeatherDisplay:10.34,2013-10-07 16:17:00,
2013-10-07 10:22:00,45.0,39.2,29.93,East,80,7.0,7.0,80,0.00,BKN,BKN,0.00,WeatherDisplay:10.34,2013-10-07 16:22:00,
2013-10-07 10:27:00,45.0,38.9,29.93,NNE,24,3.0,5.0,79,0.00,BKN,BKN,0.00,WeatherDisplay:10.34,2013-10-07 16:27:00,
2013-10-07 10:32:00,45.0,39.2,29.93,ENE,60,4.0,5.0,80,0.00,SCT,SCT,0.00,WeatherDisplay:10.34,2013-10-07 16:32:00,
2013-10-07 10:37:00,45.4,39.9,29.93,NNE,22,2.0,3.0,81,0.00,CLR,CLR,0.00,WeatherDisplay:10.34,2013-10-07 16:37:00,
2013-10-07 10:42:00,46.1,40.6,29.93,NNE,19,6.0,8.0,81,0.00,CLR,CLR,0.00,WeatherDisplay:10.34,2013-10-07 16:42:00,
2013-10-07 10:47:00,47.0,41.1,29.93,NNE,21,5.0,8.0,80,0.00,CLR,CLR,0.00,WeatherDisplay:10.34,2013-10-07 16:47:00,
2013-10-07 10:52:00,47.9,41.4,29.93,NNW,333,5.0,5.0,78,0.00,CLR,CLR,0.00,WeatherDisplay:10.34,2013-10-07 16:52:00,
2013-10-07 10:57:00,48.6,41.4,29.93,NNW,341,3.0,5.0,76,0.00,CLR,CLR,0.00,WeatherDisplay:10.34,2013-10-07 16:57:00,
2013-10-07 11:02:00,49.0,40.7,29.93,NE,44,4.0,4.0,73,0.00,SCT,SCT,0.00,WeatherDisplay:10.34,2013-10-07 17:02:00,
2013-10-07 11:07:00,49.1,40.8,29.92,ENE,76,7.0,7.0,73,0.00,SCT,SCT,0.00,WeatherDisplay:10.34,2013-10-07 17:07:00,
2013-10-07 11:12:00,48.9,40.3,29.92,NNE,32,6.0,9.0,72,0.00,BKN,BKN,0.00,WeatherDisplay:10.34,2013-10-07 17:12:00,
2013-10-07 11:17:00,49.0,40.7,29.92,East,84,7.0,9.0,73,0.00,BKN,BKN,0.00,WeatherDisplay:10.34,2013-10-07 17:17:00,
2013-10-07 11:22:00,49.0,40.7,29.92,NNE,22,1.0,2.0,73,0.00,BKN,BKN,0.00,WeatherDisplay:10.34,2013-10-07 17:22:00,
2013-10-07 11:27:00,49.2,41.6,29.92,NE,54,0.0,2.0,75,0.00,BKN,BKN,0.00,WeatherDisplay:10.34,2013-10-07 17:27:00,
2013-10-07 11:32:00,49.4,41.1,29.91,NNE,12,4.0,5.0,73,0.00,BKN,BKN,0.00,WeatherDisplay:10.34,2013-10-07 17:32:00,
2013-10-07 11:37:00,49.6,41.3,29.91,ENE,76,0.0,1.0,73,0.00,BKN,BKN,0.00,WeatherDisplay:10.34,2013-10-07 17:37:00,
2013-10-07 11:42:00,49.7,41.4,29.91,NNW,342,3.0,3.0,73,0.00,BKN,BKN,0.00,WeatherDisplay:10.34,2013-10-07 17:42:00,
2013-10-07 11:47:00,49.9,41.6,29.91,NNE,33,0.0,1.0,73,0.00,BKN,BKN,0.00,WeatherDisplay:10.34,2013-10-07 17:47:00,
2013-10-07 11:52:00,50.0,41.7,29.90,NNW,346,1.0,2.0,73,0.00,SCT,SCT,0.00,WeatherDisplay:10.34,2013-10-07 17:52:00,
2013-10-07 11:57:00,50.3,42.3,29.90,NNW,348,2.0,5.0,74,0.00,SCT,SCT,0.00,WeatherDisplay:10.34,2013-10-07 17:57:00,
2013-10-07 12:02:00,50.5,42.2,29.90,North,355,2.0,2.0,73,0.00,SCT,SCT,0.00,WeatherDisplay:10.34,2013-10-07 18:02:00,
2013-10-07 12:07:00,50.6,41.9,29.89,North,9,5.0,5.0,72,0.00,SCT,SCT,0.00,WeatherDisplay:10.34,2013-10-07 18:07:00,
2013-10-07 12:12:00,50.8,42.5,29.89,NE,44,4.0,5.0,73,0.00,SCT,SCT,0.00,WeatherDisplay:10.34,2013-10-07 18:12:00,
2013-10-07 12:17:00,51.2,42.8,29.89,NNE,19,2.0,2.0,73,0.00,SCT,SCT,0.00,WeatherDisplay:10.34,2013-10-07 18:17:00,
2013-10-07 12:22:00,51.6,43.2,29.88,NNE,14,4.0,8.0,73,0.00,FEW,FEW,0.00,WeatherDisplay:10.34,2013-10-07 18:22:00,
2013-10-07 12:27:00,52.1,43.3,29.88,NNW,346,2.0,3.0,72,0.00,SCT,SCT,0.00,WeatherDisplay:10.34,2013-10-07 18:27:00,
2013-10-07 12:32:00,52.5,43.0,29.87,North,355,4.0,5.0,70,0.00,FEW,FEW,0.00,WeatherDisplay:10.34,2013-10-07 18:32:00,
2013-10-07 12:37:00,52.7,43.6,29.87,NE,55,4.0,7.0,71,0.00,FEW,FEW,0.00,WeatherDisplay:10.34,2013-10-07 18:37:00,
2013-10-07 12:42:00,53.1,43.6,29.86,North,350,1.0,7.0,70,0.00,SCT,SCT,0.00,WeatherDisplay:10.34,2013-10-07 18:42:00,
2013-10-07 12:47:00,53.5,43.6,29.86,NNE,17,4.0,5.0,69,0.00,SCT,SCT,0.00,WeatherDisplay:10.34,2013-10-07 18:47:00,
2013-10-07 12:52:00,53.8,44.2,29.86,NNW,346,2.0,3.0,70,0.00,SCT,SCT,0.00,WeatherDisplay:10.34,2013-10-07 18:52:00,
2013-10-07 12:57:00,54.2,44.2,29.87,North,355,3.0,3.0,69,0.00,BKN,BKN,0.00,WeatherDisplay:10.34,2013-10-07 18:57:00,
2013-10-07 13:02:00,54.3,44.7,29.87,NNW,348,0.0,2.0,70,0.00,BKN,BKN,0.00,WeatherDisplay:10.34,2013-10-07 19:02:00,
2013-10-07 13:07:00,54.5,44.5,29.87,NNE,19,5.0,5.0,69,0.00,BKN,BKN,0.00,WeatherDisplay:10.34,2013-10-07 19:07:00,
2013-10-07 13:12:00,54.6,45.0,29.85,ENE,61,1.0,1.0,70,0.00,BKN,BKN,0.00,WeatherDisplay:10.34,2013-10-07 19:12:00,
2013-10-07 13:17:00,54.9,45.3,29.85,NNE,32,1.0,2.0,70,0.00,BKN,BKN,0.00,WeatherDisplay:10.34,2013-10-07 19:17:00,
2013-10-07 13:22:00,55.1,45.5,29.85,NNE,22,0.0,1.0,70,0.00,SCT,SCT,0.00,WeatherDisplay:10.34,2013-10-07 19:22:00,
2013-10-07 13:27:00,55.5,45.9,29.85,ENE,72,2.0,2.0,70,0.00,SCT,SCT,0.00,WeatherDisplay:10.34,2013-10-07 19:27:00,
2013-10-07 13:32:00,55.8,45.4,29.84,North,355,6.0,8.0,68,0.00,BKN,BKN,0.00,WeatherDisplay:10.34,2013-10-07 19:32:00,
2013-10-07 13:37:00,55.5,44.7,29.84,North,5,6.0,7.0,67,0.00,BKN,BKN,0.00,WeatherDisplay:10.34,2013-10-07 19:37:00,
2013-10-07 13:42:00,55.5,44.7,29.84,NNE,28,3.0,7.0,67,0.00,FEW,FEW,0.00,WeatherDisplay:10.34,2013-10-07 19:42:00,
2013-10-07 13:47:00,56.0,45.2,29.84,North,355,6.0,8.0,67,0.00,FEW,FEW,0.00,WeatherDisplay:10.34,2013-10-07 19:47:00,
2013-10-07 13:52:00,56.5,44.9,29.83,NNE,19,11.0,11.0,65,0.00,SCT,SCT,0.00,WeatherDisplay:10.34,2013-10-07 19:52:00,
2013-10-07 13:57:00,56.8,45.2,29.83,NNW,348,7.0,8.0,65,0.00,SCT,SCT,0.00,WeatherDisplay:10.34,2013-10-07 19:57:00,
2013-10-07 14:02:00,57.3,45.6,29.83,NNE,12,9.0,12.0,65,0.00,FEW,FEW,0.00,WeatherDisplay:10.34,2013-10-07 20:02:00,
2013-10-07 14:07:00,57.6,45.9,29.83,NNW,344,4.0,5.0,65,0.00,CLR,CLR,0.00,WeatherDisplay:10.34,2013-10-07 20:07:00,
2013-10-07 14:12:00,58.5,46.8,29.83,NNW,342,7.0,8.0,65,0.00,CLR,CLR,0.00,WeatherDisplay:10.34,2013-10-07 20:12:00,
2013-10-07 14:17:00,59.4,47.6,29.83,NNW,348,2.0,2.0,65,0.00,CLR,CLR,0.00,WeatherDisplay:10.34,2013-10-07 20:17:00,
2013-10-07 14:22:00,60.5,47.0,29.81,ESE,113,7.0,12.0,61,0.00,CLR,CLR,0.00,WeatherDisplay:10.34,2013-10-07 20:22:00,
2013-10-07 14:27:00,60.8,45.5,29.81,East,98,11.0,14.0,57,0.00,CLR,CLR,0.00,WeatherDisplay:10.34,2013-10-07 20:27:00,
2013-10-07 14:32:00,61.0,46.1,29.81,East,80,15.0,15.0,58,0.00,CLR,CLR,0.00,WeatherDisplay:10.34,2013-10-07 20:32:00,
2013-10-07 14:37:00,61.1,45.3,29.81,ENE,65,14.0,14.0,56,0.00,CLR,CLR,0.00,WeatherDisplay:10.34,2013-10-07 20:37:00,
2013-10-07 14:42:00,61.2,46.3,29.80,East,92,12.0,13.0,58,0.00,CLR,CLR,0.00,WeatherDisplay:10.34,2013-10-07 20:42:00,
2013-10-07 14:47:00,61.7,45.4,29.80,ENE,57,11.0,13.0,55,0.00,CLR,CLR,0.00,WeatherDisplay:10.34,2013-10-07 20:47:00,
2013-10-07 14:52:00,62.4,46.0,29.81,ESE,107,10.0,10.0,55,0.00,CLR,CLR,0.00,WeatherDisplay:10.34,2013-10-07 20:52:00,
2013-10-07 14:57:00,62.4,44.5,29.81,East,96,13.0,14.0,52,0.00,SCT,SCT,0.00,WeatherDisplay:10.34,2013-10-07 20:57:00,
2013-10-07 15:02:00,62.0,45.2,29.81,East,86,11.0,13.0,54,0.00,SCT,SCT,0.00,WeatherDisplay:10.34,2013-10-07 21:02:00,
2013-10-07 15:07:00,62.1,44.3,29.81,ENE,71,10.0,12.0,52,0.00,FEW,FEW,0.00,WeatherDisplay:10.34,2013-10-07 21:07:00,
2013-10-07 15:12:00,62.0,44.2,29.79,East,101,8.0,9.0,52,0.00,CLR,CLR,0.00,WeatherDisplay:10.34,2013-10-07 21:12:00,
2013-10-07 15:17:00,62.2,44.9,29.78,East,99,8.0,13.0,53,0.00,CLR,CLR,0.00,WeatherDisplay:10.34,2013-10-07 21:17:00,
2013-10-07 15:22:00,62.5,44.6,29.78,ENE,74,12.0,13.0,52,0.00,CLR,CLR,0.00,WeatherDisplay:10.34,2013-10-07 21:22:00,
2013-10-07 15:27:00,62.5,44.6,29.78,SSE,148,12.0,12.0,52,0.00,FEW,FEW,0.00,WeatherDisplay:10.34,2013-10-07 21:27:00,
2013-10-07 15:32:00,61.7,44.9,29.78,ESE,118,13.0,13.0,54,0.00,BKN,BKN,0.00,WeatherDisplay:10.34,2013-10-07 21:32:00,
2013-10-07 15:37:00,61.3,44.0,29.78,ESE,108,12.0,12.0,53,0.00,CLR,CLR,0.00,WeatherDisplay:10.34,2013-10-07 21:37:00,
2013-10-07 15:42:00,61.5,45.2,29.78,East,90,12.0,12.0,55,0.00,CLR,CLR,0.00,WeatherDisplay:10.34,2013-10-07 21:42:00,
2013-10-07 15:47:00,61.9,44.6,29.77,ESE,117,14.0,15.0,53,0.00,CLR,CLR,0.00,WeatherDisplay:10.34,2013-10-07 21:47:00,
2013-10-07 15:52:00,61.9,45.1,29.77,ENE,76,11.0,11.0,54,0.00,CLR,CLR,0.00,WeatherDisplay:10.34,2013-10-07 21:52:00,
2013-10-07 15:57:00,62.5,46.1,29.77,ESE,121,10.0,12.0,55,0.00,CLR,CLR,0.00,WeatherDisplay:10.34,2013-10-07 21:57:00,
2013-10-07 16:02:00,62.8,46.4,29.77,SE,134,14.0,14.0,55,0.00,CLR,CLR,0.00,WeatherDisplay:10.34,2013-10-07 22:02:00,
2013-10-07 16:07:00,62.9,45.5,29.77,East,99,12.0,16.0,53,0.00,CLR,CLR,0.00,WeatherDisplay:10.34,2013-10-07 22:07:00,
2013-10-07 16:12:00,62.8,44.9,29.77,East,89,9.0,10.0,52,0.00,CLR,CLR,0.00,WeatherDisplay:10.34,2013-10-07 22:12:00,
2013-10-07 16:17:00,63.0,45.6,29.77,SE,137,12.0,13.0,53,0.00,CLR,CLR,0.00,WeatherDisplay:10.34,2013-10-07 22:17:00,
2013-10-07 16:22:00,62.9,45.0,29.77,ESE,118,12.0,12.0,52,0.00,CLR,CLR,0.00,WeatherDisplay:10.34,2013-10-07 22:22:00,
2013-10-07 16:27:00,62.8,44.9,29.76,SE,138,10.0,12.0,52,0.00,BKN,BKN,0.00,WeatherDisplay:10.34,2013-10-07 22:27:00,
2013-10-07 16:32:00,62.2,44.9,29.76,East,98,12.0,12.0,53,0.00,BKN,BKN,0.00,WeatherDisplay:10.34,2013-10-07 22:32:00,
2013-10-07 16:37:00,62.0,45.2,29.76,SE,134,9.0,9.0,54,0.00,CLR,CLR,0.00,WeatherDisplay:10.34,2013-10-07 22:37:00,
2013-10-07 16:42:00,62.0,45.2,29.76,East,96,9.0,12.0,54,0.00,CLR,CLR,0.00,WeatherDisplay:10.34,2013-10-07 22:42:00,
2013-10-07 16:47:00,62.5,45.6,29.76,East,96,7.0,8.0,54,0.00,CLR,CLR,0.00,WeatherDisplay:10.34,2013-10-07 22:47:00,
2013-10-07 16:52:00,62.8,45.4,29.76,East,98,11.0,13.0,53,0.00,FEW,FEW,0.00,WeatherDisplay:10.34,2013-10-07 22:52:00,
2013-10-07 16:57:00,62.8,44.9,29.75,ESE,103,10.0,10.0,52,0.00,CLR,CLR,0.00,WeatherDisplay:10.34,2013-10-07 22:57:00,
2013-10-07 17:02:00,62.9,45.0,29.75,SE,138,8.0,8.0,52,0.00,CLR,CLR,0.00,WeatherDisplay:10.34,2013-10-07 23:02:00,
2013-10-07 17:07:00,63.0,45.6,29.75,ENE,73,5.0,5.0,53,0.00,CLR,CLR,0.00,WeatherDisplay:10.34,2013-10-07 23:07:00,
2013-10-07 17:12:00,63.0,44.1,29.75,ESE,118,10.0,10.0,50,0.00,SCT,SCT,0.00,WeatherDisplay:10.34,2013-10-07 23:12:00,
2013-10-07 17:17:00,62.4,44.0,29.75,ESE,110,11.0,12.0,51,0.00,BKN,BKN,0.00,WeatherDisplay:10.34,2013-10-07 23:17:00,
2013-10-07 17:22:00,61.8,43.5,29.74,SSE,157,8.0,9.0,51,0.00,OVC,OVC,0.00,WeatherDisplay:10.34,2013-10-07 23:22:00,
2013-10-07 17:27:00,61.2,43.4,29.74,ESE,122,9.0,10.0,52,0.00,OVC,OVC,0.00,WeatherDisplay:10.34,2013-10-07 23:27:00,
2013-10-07 17:32:00,60.9,44.6,29.74,ESE,104,4.0,4.0,55,0.00,OVC,OVC,0.00,WeatherDisplay:10.34,2013-10-07 23:32:00,
2013-10-07 17:37:00,60.7,43.9,29.74,East,92,8.0,9.0,54,0.00,BKN,BKN,0.00,WeatherDisplay:10.34,2013-10-07 23:37:00,
2013-10-07 17:42:00,60.5,43.3,29.75,East,96,6.0,7.0,53,0.00,BKN,BKN,0.00,WeatherDisplay:10.34,2013-10-07 23:42:00,
2013-10-07 17:47:00,60.4,43.2,29.74,ESE,118,3.0,5.0,53,0.00,SCT,SCT,0.00,WeatherDisplay:10.34,2013-10-07 23:47:00,
2013-10-07 17:52:00,60.5,43.3,29.74,ESE,117,2.0,2.0,53,0.00,CLR,CLR,0.00,WeatherDisplay:10.34,2013-10-07 23:52:00,
2013-10-07 17:57:00,60.5,43.8,29.74,ESE,121,4.0,5.0,54,0.00,BKN,BKN,0.00,WeatherDisplay:10.34,2013-10-07 23:57:00,
2013-10-07 18:02:00,60.3,44.1,29.74,ESE,122,2.0,2.0,55,0.00,BKN,BKN,0.00,WeatherDisplay:10.34,2013-10-08 00:02:00,
2013-10-07 18:07:00,60.2,43.0,29.74,ESE,110,4.0,4.0,53,0.00,BKN,BKN,0.00,WeatherDisplay:10.34,2013-10-08 00:07:00,
2013-10-07 18:12:00,60.1,43.4,29.74,East,101,3.0,3.0,54,0.00,FEW,FEW,0.00,WeatherDisplay:10.34,2013-10-08 00:12:00,
2013-10-07 18:17:00,60.0,43.3,29.73,ESE,105,2.0,2.0,54,0.00,BKN,BKN,0.00,WeatherDisplay:10.34,2013-10-08 00:17:00,
2013-10-07 18:22:00,59.9,43.2,29.73,ESE,105,0.0,0.0,54,0.00,OVC,OVC,0.00,WeatherDisplay:10.34,2013-10-08 00:22:00,
2013-10-07 18:27:00,59.8,43.1,29.73,ESE,105,0.0,0.0,54,0.00,OVC,OVC,0.00,WeatherDisplay:10.34,2013-10-08 00:27:00,
2013-10-07 18:32:00,59.6,42.4,29.74,ESE,105,0.0,1.0,53,0.00,OVC,OVC,0.00,WeatherDisplay:10.34,2013-10-08 00:32:00,
2013-10-07 18:37:00,59.4,42.3,29.74,ESE,105,0.0,0.0,53,0.00,OVC,OVC,0.00,WeatherDisplay:10.34,2013-10-08 00:37:00,
2013-10-07 18:42:00,59.1,42.5,29.74,ESE,105,0.0,1.0,54,0.00,OVC,OVC,0.00,WeatherDisplay:10.34,2013-10-08 00:42:00,
2013-10-07 18:47:00,59.0,43.3,29.74,WNW,290,0.0,0.0,56,0.00,OVC,OVC,0.00,WeatherDisplay:10.34,2013-10-08 00:47:00,
2013-10-07 18:52:00,58.5,42.8,29.74,WNW,290,0.0,1.0,56,0.00,OVC,OVC,0.00,WeatherDisplay:10.34,2013-10-08 00:52:00,
2013-10-07 18:57:00,58.1,42.9,29.74,WNW,290,1.0,1.0,57,0.00,OVC,OVC,0.00,WeatherDisplay:10.34,2013-10-08 00:57:00,
2013-10-07 19:02:00,57.6,43.4,29.74,WNW,290,0.0,0.0,59,0.00,CLR,CLR,0.00,WeatherDisplay:10.34,2013-10-08 01:02:00,
2013-10-07 19:07:00,57.1,42.9,29.74,WNW,290,0.0,0.0,59,0.00,CLR,CLR,0.00,WeatherDisplay:10.34,2013-10-08 01:07:00,
2013-10-07 19:12:00,56.7,43.4,29.74,WNW,290,0.0,1.0,61,0.00,CLR,CLR,0.00,WeatherDisplay:10.34,2013-10-08 01:12:00,
2013-10-07 19:17:00,56.1,43.3,29.74,WNW,290,1.0,2.0,62,0.00,CLR,CLR,0.00,WeatherDisplay:10.34,2013-10-08 01:17:00,
2013-10-07 19:22:00,55.3,42.9,29.73,WNW,293,5.0,5.0,63,0.00,CLR,CLR,0.00,WeatherDisplay:10.34,2013-10-08 01:22:00,
2013-10-07 19:27:00,54.6,43.1,29.73,WNW,292,3.0,3.0,65,0.00,CLR,CLR,0.00,WeatherDisplay:10.34,2013-10-08 01:27:00,
2013-10-07 19:32:00,53.7,43.0,29.73,WNW,295,0.0,1.0,67,0.00,CLR,CLR,0.00,WeatherDisplay:10.34,2013-10-08 01:32:00,
2013-10-07 19:37:00,53.1,43.2,29.73,WNW,295,1.0,2.0,69,0.00,CLR,CLR,0.00,WeatherDisplay:10.34,2013-10-08 01:37:00,
2013-10-07 19:42:00,52.8,42.9,29.73,West,264,3.0,3.0,69,0.00,CLR,CLR,0.00,WeatherDisplay:10.34,2013-10-08 01:42:00,
2013-10-07 19:47:00,52.3,42.8,29.73,WSW,242,4.0,4.0,70,0.00,CLR,CLR,0.00,WeatherDisplay:10.34,2013-10-08 01:47:00,
2013-10-07 19:52:00,52.0,43.3,29.72,WSW,241,0.0,0.0,72,0.00,CLR,CLR,0.00,WeatherDisplay:10.34,2013-10-08 01:52:00,
2013-10-07 19:57:00,51.5,42.8,29.72,WSW,241,1.0,1.0,72,0.00,CLR,CLR,0.00,WeatherDisplay:10.34,2013-10-08 01:57:00,
2013-10-07 20:02:00,51.0,42.3,29.73,WSW,242,0.0,1.0,72,0.00,CLR,CLR,0.00,WeatherDisplay:10.34,2013-10-08 02:02:00,
2013-10-07 20:07:00,50.8,42.1,29.73,WSW,242,0.0,0.0,72,0.00,CLR,CLR,0.00,WeatherDisplay:10.34,2013-10-08 02:07:00,
2013-10-07 20:12:00,50.5,41.8,29.73,WSW,242,0.0,0.0,72,0.00,CLR,CLR,0.00,WeatherDisplay:10.34,2013-10-08 02:12:00,
2013-10-07 20:17:00,50.4,42.1,29.72,WSW,242,1.0,2.0,73,0.00,CLR,CLR,0.00,WeatherDisplay:10.34,2013-10-08 02:17:00,
2013-10-07 20:22:00,50.2,41.9,29.72,WSW,242,0.0,0.0,73,0.00,CLR,CLR,0.00,WeatherDisplay:10.34,2013-10-08 02:22:00,
2013-10-07 20:27:00,50.0,42.0,29.72,WSW,242,0.0,1.0,74,0.00,CLR,CLR,0.00,WeatherDisplay:10.34,2013-10-08 02:27:00,
2013-10-07 20:32:00,49.8,41.5,29.72,WSW,242,0.0,0.0,73,0.00,CLR,CLR,0.00,WeatherDisplay:10.34,2013-10-08 02:32:00,
2013-10-07 20:37:00,49.6,41.7,29.72,WSW,242,0.0,0.0,74,0.00,CLR,CLR,0.00,WeatherDisplay:10.34,2013-10-08 02:37:00,
2013-10-07 20:42:00,49.2,41.3,29.72,WSW,242,0.0,0.0,74,0.00,CLR,CLR,0.00,WeatherDisplay:10.34,2013-10-08 02:42:00,
2013-10-07 20:47:00,48.9,41.3,29.73,WSW,242,3.0,3.0,75,0.00,CLR,CLR,0.00,WeatherDisplay:10.34,2013-10-08 02:47:00,
2013-10-07 20:52:00,48.6,41.0,29.73,WSW,243,0.0,0.0,75,0.00,CLR,CLR,0.00,WeatherDisplay:10.34,2013-10-08 02:52:00,
2013-10-07 20:57:00,48.4,41.2,29.73,WSW,244,0.0,1.0,76,0.00,CLR,CLR,0.00,WeatherDisplay:10.34,2013-10-08 02:57:00,
2013-10-07 21:02:00,48.1,40.9,29.73,WSW,244,0.0,1.0,76,0.00,CLR,CLR,0.00,WeatherDisplay:10.34,2013-10-08 03:02:00,
2013-10-07 21:07:00,47.9,41.0,29.72,WSW,244,0.0,0.0,77,0.00,CLR,CLR,0.00,WeatherDisplay:10.34,2013-10-08 03:07:00,
2013-10-07 21:12:00,47.7,40.8,29.72,WSW,244,0.0,1.0,77,0.00,CLR,CLR,0.00,WeatherDisplay:10.34,2013-10-08 03:12:00,
2013-10-07 21:17:00,47.5,40.6,29.72,WSW,244,0.0,0.0,77,0.00,CLR,CLR,0.00,WeatherDisplay:10.34,2013-10-08 03:17:00,
2013-10-07 21:22:00,47.3,40.8,29.72,WSW,244,1.0,1.0,78,0.00,CLR,CLR,0.00,WeatherDisplay:10.34,2013-10-08 03:22:00,
2013-10-07 21:27:00,47.1,40.6,29.72,WSW,244,2.0,2.0,78,0.00,CLR,CLR,0.00,WeatherDisplay:10.34,2013-10-08 03:27:00,
2013-10-07 21:32:00,46.9,40.4,29.72,WSW,244,0.0,0.0,78,0.00,CLR,CLR,0.00,WeatherDisplay:10.34,2013-10-08 03:32:00,
2013-10-07 21:37:00,46.7,40.2,29.72,WSW,244,4.0,4.0,78,0.00,CLR,CLR,0.00,WeatherDisplay:10.34,2013-10-08 03:37:00,
2013-10-07 21:42:00,46.5,40.3,29.72,WSW,244,2.0,2.0,79,0.00,CLR,CLR,0.00,WeatherDisplay:10.34,2013-10-08 03:42:00,
2013-10-07 21:47:00,46.0,39.9,29.72,South,169,0.0,3.0,79,0.00,CLR,CLR,0.00,WeatherDisplay:10.34,2013-10-08 03:47:00,
2013-10-07 21:52:00,45.5,39.4,29.72,South,169,0.0,0.0,79,0.00,CLR,CLR,0.00,WeatherDisplay:10.34,2013-10-08 03:52:00,
2013-10-07 21:57:00,45.2,39.4,29.72,SSE,163,0.0,0.0,80,0.00,CLR,CLR,0.00,WeatherDisplay:10.34,2013-10-08 03:57:00,
2013-10-07 22:01:00,45.0,39.5,29.72,SSE,163,1.0,1.0,81,0.00,CLR,CLR,0.00,WeatherDisplay:10.34,2013-10-08 04:01:00,
2013-10-07 22:02:00,45.0,39.5,29.72,SSE,163,3.0,3.0,81,0.00,CLR,CLR,0.00,WeatherDisplay:10.34,2013-10-08 04:02:00,
2013-10-07 22:03:00,45.0,39.8,29.72,SSE,163,3.0,3.0,82,0.00,CLR,CLR,0.00,WeatherDisplay:10.34,2013-10-08 04:03:00,
2013-10-07 22:04:00,44.9,39.7,29.72,SSE,164,4.0,4.0,82,0.00,CLR,CLR,0.00,WeatherDisplay:10.34,2013-10-08 04:04:00,
2013-10-07 22:09:00,44.7,39.5,29.72,SSE,164,0.0,2.0,82,0.00,CLR,CLR,0.00,WeatherDisplay:10.34,2013-10-08 04:09:00,
2013-10-07 22:14:00,44.6,39.8,29.71,SW,221,8.0,9.0,83,0.00,CLR,CLR,0.00,WeatherDisplay:10.34,2013-10-08 04:14:00,
2013-10-07 22:19:00,44.7,39.9,29.71,SW,222,9.0,9.0,83,0.00,CLR,CLR,0.00,WeatherDisplay:10.34,2013-10-08 04:19:00,
2013-10-07 22:24:00,44.9,40.0,29.71,West,279,0.0,0.0,83,0.00,CLR,CLR,0.00,WeatherDisplay:10.34,2013-10-08 04:24:00,
2013-10-07 22:29:00,45.0,40.1,29.71,West,279,1.0,1.0,83,0.00,CLR,CLR,0.00,WeatherDisplay:10.34,2013-10-08 04:29:00,
2013-10-07 22:34:00,45.0,40.1,29.71,SW,233,8.0,12.0,83,0.00,CLR,CLR,0.00,WeatherDisplay:10.34,2013-10-08 04:34:00,
2013-10-07 22:39:00,44.9,40.0,29.71,SW,236,3.0,3.0,83,0.00,CLR,CLR,0.00,WeatherDisplay:10.34,2013-10-08 04:39:00,
2013-10-07 22:44:00,44.8,39.6,29.71,SW,224,9.0,9.0,82,0.00,CLR,CLR,0.00,WeatherDisplay:10.34,2013-10-08 04:44:00,
2013-10-07 22:49:00,44.7,39.9,29.71,SW,227,0.0,0.0,83,0.00,CLR,CLR,0.00,WeatherDisplay:10.34,2013-10-08 04:49:00,
2013-10-07 22:54:00,44.6,39.8,29.71,SW,227,1.0,2.0,83,0.00,CLR,CLR,0.00,WeatherDisplay:10.34,2013-10-08 04:54:00,
2013-10-07 22:59:00,44.4,39.2,29.71,SW,227,1.0,1.0,82,0.00,CLR,CLR,0.00,WeatherDisplay:10.34,2013-10-08 04:59:00,
2013-10-07 23:04:00,44.2,39.4,29.71,SW,227,5.0,5.0,83,0.00,CLR,CLR,0.00,WeatherDisplay:10.34,2013-10-08 05:04:00,
2013-10-07 23:09:00,44.1,39.6,29.71,SSW,213,6.0,6.0,84,0.00,CLR,CLR,0.00,WeatherDisplay:10.34,2013-10-08 05:09:00,
2013-10-07 23:14:00,44.0,39.5,29.71,SSW,210,1.0,0.0,84,0.00,CLR,CLR,0.00,WeatherDisplay:10.34,2013-10-08 05:14:00,
2013-10-07 23:19:00,43.7,39.2,29.71,SW,214,4.0,5.0,84,0.00,CLR,CLR,0.00,WeatherDisplay:10.34,2013-10-08 05:19:00,
2013-10-07 23:24:00,43.8,39.6,29.71,SW,230,0.0,1.0,85,0.00,CLR,CLR,0.00,WeatherDisplay:10.34,2013-10-08 05:24:00,
2013-10-07 23:29:00,43.9,40.0,29.71,SSW,201,0.0,0.0,86,0.00,CLR,CLR,0.00,WeatherDisplay:10.34,2013-10-08 05:29:00,
2013-10-07 23:34:00,43.6,39.4,29.72,SSW,200,3.0,3.0,85,0.00,CLR,CLR,0.00,WeatherDisplay:10.34,2013-10-08 05:34:00,
2013-10-07 23:39:00,43.3,39.4,29.72,SSW,200,2.0,2.0,86,0.00,CLR,CLR,0.00,WeatherDisplay:10.34,2013-10-08 05:39:00,
2013-10-07 23:44:00,43.3,39.4,29.72,SSW,200,1.0,1.0,86,0.00,CLR,CLR,0.00,WeatherDisplay:10.34,2013-10-08 05:44:00,
2013-10-07 23:49:00,43.3,39.4,29.72,SSW,202,1.0,1.0,86,0.00,CLR,CLR,0.00,WeatherDisplay:10.34,2013-10-08 05:49:00,
2013-10-07 23:54:00,43.3,39.4,29.71,SSW,202,0.0,0.0,86,0.00,CLR,CLR,0.00,WeatherDisplay:10.34,2013-10-08 05:54:00,
2013-10-07 23:59:00,43.3,39.4,29.71,SSW,202,0.0,0.0,86,0.00,CLR,CLR,0.00,WeatherDisplay:10.34,2013-10-08 05:59:00,